Location: Unspecified
(0.0000°N, 0.0000°E)
Time: 03:12:25
(UTC+00:00)

Hubble Space Telescope - Pass Details

Date: 17 November 2019
Orbit: 536 x 540 km, 28.5° (Epoch: 10 November)

Event Time Altitude Azimuth Distance (km) Brightness Sun altitude
Exits shadow 04:46:06 16° 252° (WSW) 1,424 2.5 -13.9°
Maximum altitude 04:48:15 24° 209° (SSW) 1,118 2.3 -13.4°
Drops below altitude 10° 04:51:39 10° 153° (SSE) 1,785 4.1 -12.6°
Sets 04:54:14 0° 140° (SE) 2,676 5.4 -12.0°
